TimeEST,TemperatureF,Dew PointF,Humidity,Sea Level PressureIn,VisibilityMPH,Wind Direction,Wind SpeedMPH,Gust SpeedMPH,PrecipitationIn,Events,Conditions,WindDirDegrees,DateUTC
12:15 AM,35.6,35.6,100,30.26,10.0,Calm,Calm,-,N/A,,Clear,0,2013-03-09 05:15:00
12:35 AM,35.6,35.6,100,30.26,10.0,Calm,Calm,-,N/A,,Clear,0,2013-03-09 05:35:00
12:55 AM,35.6,35.6,100,30.27,10.0,Calm,Calm,-,N/A,,Clear,0,2013-03-09 05:55:00
1:15 AM,33.8,33.8,100,30.26,10.0,Calm,Calm,-,N/A,,Clear,0,2013-03-09 06:15:00
1:35 AM,33.8,33.8,100,30.26,10.0,Calm,Calm,-,N/A,,Clear,0,2013-03-09 06:35:00
1:55 AM,35.6,35.6,100,30.26,10.0,Calm,Calm,-,N/A,,Clear,0,2013-03-09 06:55:00
2:15 AM,33.8,33.8,100,30.25,10.0,Calm,Calm,-,N/A,,Clear,0,2013-03-09 07:15:00
2:55 AM,33.8,33.8,100,30.23,10.0,Calm,Calm,-,N/A,,Clear,0,2013-03-09 07:55:00
3:15 AM,33.8,33.8,100,30.23,10.0,Calm,Calm,-,N/A,,Clear,0,2013-03-09 08:15:00
3:35 AM,33.8,33.8,100,30.23,10.0,Calm,Calm,-,N/A,,Clear,0,2013-03-09 08:35:00
3:55 AM,33.8,33.8,100,30.22,10.0,Calm,Calm,-,N/A,,Clear,0,2013-03-09 08:55:00
4:15 AM,33.8,33.8,100,30.23,10.0,Calm,Calm,-,N/A,,Clear,0,2013-03-09 09:15:00
4:35 AM,33.8,33.8,100,30.22,10.0,Calm,Calm,-,N/A,,Clear,0,2013-03-09 09:35:00
4:55 AM,33.8,33.8,100,30.23,10.0,Calm,Calm,-,N/A,,Clear,0,2013-03-09 09:55:00
5:15 AM,32.0,32.0,100,30.24,10.0,Calm,Calm,-,N/A,,Clear,0,2013-03-09 10:15:00
5:35 AM,33.8,33.8,100,30.25,10.0,Calm,Calm,-,N/A,,Clear,0,2013-03-09 10:35:00
5:55 AM,33.8,33.8,100,30.25,10.0,Calm,Calm,-,N/A,,Clear,0,2013-03-09 10:55:00
6:15 AM,32.0,32.0,100,30.26,10.0,Calm,Calm,-,N/A,,Clear,0,2013-03-09 11:15:00
6:35 AM,32.0,32.0,100,30.26,7.0,Calm,Calm,-,N/A,,Clear,0,2013-03-09 11:35:00
6:55 AM,32.0,32.0,100,30.27,10.0,NE,4.6,-,N/A,,Clear,40,2013-03-09 11:55:00
7:15 AM,33.8,33.8,100,30.27,10.0,NE,3.5,-,N/A,,Clear,40,2013-03-09 12:15:00
7:35 AM,37.4,37.4,100,30.28,10.0,NE,5.8,-,N/A,,Clear,50,2013-03-09 12:35:00
7:55 AM,42.8,37.4,81,30.28,10.0,ENE,4.6,-,N/A,,Clear,60,2013-03-09 12:55:00
8:15 AM,44.6,37.4,76,30.29,10.0,ENE,5.8,-,N/A,,Clear,60,2013-03-09 13:15:00
8:35 AM,46.4,37.4,71,30.30,10.0,NE,5.8,-,N/A,,Clear,50,2013-03-09 13:35:00
8:55 AM,50.0,39.2,66,30.31,10.0,East,5.8,-,N/A,,Clear,80,2013-03-09 13:55:00
9:15 AM,51.8,41.0,67,30.32,10.0,East,9.2,-,N/A,,Clear,90,2013-03-09 14:15:00
9:35 AM,53.6,41.0,62,30.32,10.0,East,6.9,-,N/A,,Clear,90,2013-03-09 14:35:00
9:55 AM,55.4,39.2,54,30.33,10.0,East,8.1,-,N/A,,Clear,100,2013-03-09 14:55:00
10:15 AM,55.4,41.0,58,30.33,10.0,East,5.8,-,N/A,,Clear,100,2013-03-09 15:15:00
10:35 AM,57.2,37.4,48,30.33,10.0,East,4.6,-,N/A,,Clear,100,2013-03-09 15:35:00
10:55 AM,59.0,39.2,48,30.33,10.0,ENE,4.6,-,N/A,,Clear,70,2013-03-09 15:55:00
11:15 AM,60.8,39.2,45,30.32,10.0,East,8.1,-,N/A,,Clear,90,2013-03-09 16:15:00
11:35 AM,60.8,37.4,42,30.32,10.0,SE,5.8,-,N/A,,Clear,130,2013-03-09 16:35:00
11:55 AM,62.6,39.2,42,30.31,10.0,East,8.1,-,N/A,,Clear,100,2013-03-09 16:55:00
12:15 PM,62.6,39.2,42,30.30,10.0,ENE,6.9,-,N/A,,Clear,60,2013-03-09 17:15:00
12:35 PM,62.6,39.2,42,30.30,10.0,Calm,Calm,-,N/A,,Clear,0,2013-03-09 17:35:00
12:55 PM,64.4,39.2,40,30.29,10.0,East,4.6,-,N/A,,Clear,100,2013-03-09 17:55:00
1:15 PM,64.4,37.4,37,30.28,10.0,North,3.5,-,N/A,,Clear,350,2013-03-09 18:15:00
1:35 PM,64.4,41.0,42,30.27,10.0,East,6.9,-,N/A,,Clear,80,2013-03-09 18:35:00
1:55 PM,66.2,41.0,40,30.26,10.0,ESE,5.8,-,N/A,,Clear,110,2013-03-09 18:55:00
2:15 PM,66.2,41.0,40,30.25,10.0,East,8.1,-,N/A,,Clear,100,2013-03-09 19:15:00
2:35 PM,66.2,42.8,43,30.24,10.0,SE,3.5,-,N/A,,Clear,140,2013-03-09 19:35:00
2:55 PM,66.2,39.2,37,30.24,10.0,SSW,3.5,-,N/A,,Clear,200,2013-03-09 19:55:00
3:15 PM,68.0,41.0,37,30.23,10.0,East,6.9,-,N/A,,Clear,100,2013-03-09 20:15:00
3:35 PM,68.0,41.0,37,30.23,10.0,East,5.8,-,N/A,,Clear,90,2013-03-09 20:35:00
3:55 PM,68.0,41.0,37,30.23,10.0,NE,4.6,-,N/A,,Clear,40,2013-03-09 20:55:00
4:15 PM,68.0,41.0,37,30.23,10.0,ESE,8.1,-,N/A,,Clear,120,2013-03-09 21:15:00
4:35 PM,66.2,41.0,40,30.23,10.0,East,6.9,-,N/A,,Clear,100,2013-03-09 21:35:00
4:55 PM,64.4,42.8,45,30.23,10.0,SE,8.1,-,N/A,,Clear,140,2013-03-09 21:55:00
5:15 PM,62.6,42.8,48,30.23,10.0,SSE,8.1,-,N/A,,Clear,160,2013-03-09 22:15:00
5:35 PM,60.8,41.0,48,30.24,10.0,SE,8.1,-,N/A,,Clear,130,2013-03-09 22:35:00
5:55 PM,59.0,39.2,48,30.25,10.0,SE,4.6,-,N/A,,Clear,140,2013-03-09 22:55:00
6:15 PM,59.0,41.0,51,30.25,10.0,SSE,6.9,-,N/A,,Clear,150,2013-03-09 23:15:00
6:35 PM,55.4,42.8,63,30.26,10.0,SE,3.5,-,N/A,,Clear,140,2013-03-09 23:35:00
6:55 PM,55.4,41.0,58,30.26,10.0,SE,3.5,-,N/A,,Clear,140,2013-03-09 23:55:00
7:15 PM,53.6,41.0,62,30.26,10.0,SE,5.8,-,N/A,,Clear,140,2013-03-10 00:15:00
7:35 PM,53.6,39.2,58,30.27,10.0,SE,4.6,-,N/A,,Clear,130,2013-03-10 00:35:00
7:55 PM,51.8,37.4,58,30.27,10.0,ESE,3.5,-,N/A,,Clear,120,2013-03-10 00:55:00
8:15 PM,50.0,39.2,66,30.26,10.0,ESE,4.6,-,N/A,,Clear,120,2013-03-10 01:15:00
8:35 PM,50.0,37.4,62,30.27,10.0,Calm,Calm,-,N/A,,Clear,0,2013-03-10 01:35:00
8:55 PM,50.0,39.2,66,30.28,10.0,Calm,Calm,-,N/A,,Clear,0,2013-03-10 01:55:00
9:15 PM,46.4,39.2,76,30.28,10.0,Calm,Calm,-,N/A,,Clear,0,2013-03-10 02:15:00
9:35 PM,44.6,37.4,76,30.27,10.0,Calm,Calm,-,N/A,,Clear,0,2013-03-10 02:35:00
9:55 PM,42.8,39.2,87,30.26,10.0,Calm,Calm,-,N/A,,Clear,0,2013-03-10 02:55:00
10:15 PM,42.8,39.2,87,30.26,10.0,Calm,Calm,-,N/A,,Clear,0,2013-03-10 03:15:00
10:35 PM,42.8,41.0,93,30.26,10.0,Calm,Calm,-,N/A,,Clear,0,2013-03-10 03:35:00
10:55 PM,41.0,39.2,93,30.26,10.0,Calm,Calm,-,N/A,,Clear,0,2013-03-10 03:55:00
11:15 PM,41.0,37.4,87,30.26,10.0,Calm,Calm,-,N/A,,Clear,0,2013-03-10 04:15:00
11:35 PM,41.0,37.4,87,30.26,10.0,Calm,Calm,-,N/A,,Clear,0,2013-03-10 04:35:00
11:55 PM,41.0,37.4,87,30.26,10.0,Calm,Calm,-,N/A,,Clear,0,2013-03-10 04:55:00